Change the Weather History Date:

Sunday, October 7, 2012

  Actual Average Record
Temperature  
Mean Temperature 53 °F 54 °F  
Max Temperature 56 °F 61 °F 89 °F (1972)
Min Temperature 49 °F 47 °F 39 °F (1949)
Degree Days  
Heating Degree Days 14 11  
Month to date heating degree days 77  
Since 1 July heating degree days 881  
Cooling Degree Days 0 0  
Month to date cooling degree days 0  
Year to date cooling degree days 0  
Growing Degree Days 2 (Base 50)    
Moisture  
Dew Point 49 °F    
Average Humidity 93    
Maximum Humidity 100    
Minimum Humidity 86    
Precipitation  
Precipitation 0.00 in 0.07 in 1.06 in (1960)
Month to date precipitation T 0.47  
Year to date precipitation 44.15 39.26  
Since 1 July precipitation 0.77 2.33  
Snow  
Snow 0.00 in - - ()
Month to date snowfall 0.0  
Since 1 July snowfall 0.0  
Since 1 September snowfall 0.0  
Snow Depth -    
Sea Level Pressure  
Sea Level Pressure 30.01 in    
Wind  
Wind Speed 3 mph (South)    
Max Wind Speed 7 mph    
Max Gust Speed 9 mph    
Visibility 5 miles    
Events Fog    
T = Trace of Precipitation, MM = Missing Value Source: NWS Daily Summary

Daily Weather History Graph

Daily Weather History Graph

Search for Another Location

Airport or City:

Trip Planner

Search our weather history database for the weather conditions in past years. The results will help you decide how hot, cold, wet, or windy it might be!

Date:

Astronomy

Oct. 07, 2012 Rise Set
Actual Time 7:20 AM PDT 6:47 PM PDT
Civil Twilight 6:53 AM PDT 7:15 PM PDT
Nautical Twilight 6:20 AM PDT 7:47 PM PDT
Astronomical Twilight 5:48 AM PDT 8:19 PM PDT
Moon No Moon Rise 2:05 PM PDT (10/7)
Length of Visible Light 12h 22m
Length of Day
11h 26m
Waning Gibbous, 55% of the Moon is Illuminated
Oct 7
Waning Gibbous
Oct 8
Last Quarter
Oct 15
New
Oct 21
First Quarter
Oct 29
Full

Hourly Weather History & Observations

Time (PDT) Temp. Dew Point Humidity Pressure Visibility Wind Dir Wind Speed Gust Speed Precip Events Conditions
12:26 AM 48.2 °F 46.4 °F 93% 30.02 in 10.0 mi Calm Calm - N/A   Scattered Clouds
12:35 AM 48.2 °F 46.4 °F 93% 30.02 in 3.0 mi Calm Calm - N/A   Mostly Cloudy
12:56 AM 51.1 °F 48.9 °F 92% 30.02 in 7.0 mi Calm Calm - N/A   Overcast
1:46 AM 50.0 °F 48.2 °F 94% 30.02 in 5.0 mi Calm Calm - N/A   Overcast
1:56 AM 50.0 °F 48.0 °F 93% 30.02 in 2.5 mi Calm Calm - N/A   Overcast
2:02 AM 50.0 °F 48.2 °F 94% 30.02 in 1.2 mi Calm Calm - N/A   Overcast
2:16 AM 50.0 °F 48.2 °F 94% 30.02 in 0.5 mi Calm Calm - N/A Fog Fog
2:56 AM 48.9 °F 48.9 °F 100% 30.02 in 0.2 mi Calm Calm - N/A Fog Fog
3:56 AM 50.0 °F 48.9 °F 96% 30.01 in 0.2 mi Calm Calm - N/A Fog Fog
4:56 AM 50.0 °F 48.0 °F 93% 30.01 in 0.2 mi Calm Calm - N/A Fog Fog
5:56 AM 50.0 °F 50.0 °F 100% 30.01 in 0.2 mi Calm Calm - N/A Fog Fog
6:56 AM 48.9 °F 48.9 °F 100% 30.02 in 0.5 mi South 3.5 mph - N/A Fog Fog
7:56 AM 50.0 °F 48.9 °F 96% 30.03 in 0.2 mi SSE 4.6 mph - N/A Fog Fog
8:56 AM 51.1 °F 50.0 °F 96% 30.03 in 0.5 mi SSE 5.8 mph - N/A Fog Fog
9:56 AM 51.1 °F 51.1 °F 100% 30.04 in 0.2 mi Variable 3.5 mph - N/A Fog Fog
10:31 AM 51.8 °F 51.8 °F 100% 30.04 in 1.0 mi South 3.5 mph - N/A   Overcast
10:56 AM 51.1 °F 51.1 °F 100% 30.04 in 1.2 mi Variable 3.5 mph - N/A   Overcast
11:13 AM 51.8 °F 51.8 °F 100% 30.03 in 0.5 mi Calm Calm - N/A Fog Fog
11:43 AM 51.8 °F 51.8 °F 100% 30.03 in 1.5 mi South 3.5 mph - N/A   Overcast
11:50 AM 51.8 °F 51.8 °F 100% 30.02 in 3.0 mi South 5.8 mph - N/A   Overcast
11:51 AM 52.0 °F 51.1 °F 97% 30.03 in 3.0 mi South 4.6 mph - N/A   Overcast
12:56 PM 55.0 °F 51.1 °F 86% 30.01 in 10.0 mi Calm Calm - N/A   Overcast
1:31 PM 55.4 °F 51.8 °F 88% 29.99 in 10.0 mi WSW 4.6 mph - N/A   Scattered Clouds
1:40 PM 53.6 °F 50.0 °F 88% 29.99 in 10.0 mi WSW 4.6 mph - N/A   Mostly Cloudy
1:56 PM 54.0 °F 50.0 °F 86% 29.99 in 8.0 mi SW 4.6 mph - N/A   Overcast
2:32 PM 53.6 °F 50.0 °F 88% 29.98 in 2.0 mi SSW 5.8 mph - N/A   Overcast
2:40 PM 51.8 °F 48.2 °F 88% 29.99 in 1.5 mi SSW 5.8 mph - N/A   Overcast
2:47 PM 51.8 °F 50.0 °F 94% 29.99 in 3.0 mi WSW 4.6 mph - N/A   Overcast
2:56 PM 52.0 °F 48.9 °F 89% 29.99 in 4.0 mi WSW 4.6 mph - N/A   Overcast
3:56 PM 53.1 °F 50.0 °F 89% 29.99 in 9.0 mi SW 4.6 mph - N/A   Overcast
4:56 PM 51.1 °F 48.0 °F 89% 29.99 in 10.0 mi South 6.9 mph - N/A   Overcast
5:14 PM 51.8 °F 48.2 °F 88% 29.99 in 10.0 mi SW 4.6 mph - N/A   Overcast
5:56 PM 51.1 °F 46.9 °F 86% 30.00 in 10.0 mi WSW 3.5 mph - N/A   Overcast
6:56 PM 50.0 °F 46.0 °F 86% 30.00 in 10.0 mi SE 3.5 mph - N/A   Overcast
7:56 PM 50.0 °F 46.0 °F 86% 30.01 in 10.0 mi South 5.8 mph - N/A   Overcast
8:56 PM 50.0 °F 46.0 °F 86% 30.02 in 10.0 mi South 6.9 mph - N/A   Overcast
9:56 PM 50.0 °F 46.9 °F 89% 30.02 in 10.0 mi SE 3.5 mph - N/A   Overcast
10:56 PM 50.0 °F 46.9 °F 89% 30.02 in 10.0 mi SSE 5.8 mph - N/A   Overcast
11:56 PM 50.0 °F 46.9 °F 89% 30.03 in 10.0 mi ESE 3.5 mph - N/A   Overcast